Flag for Canada Weather past 2 weeks in Wood Buffalo, Alberta, Canada

Now
40 °F

Chilly.


Feels Like: 33 °F
Forecast: 43 / 68 °F
Wind: 12 mph from Southeast

Location: Fort McMurray CS

Current Time: Sep 17, 2014 at 7:14:09 AM

Latest Report: Sep 17, 2014 at 6:00 AM


Visibility: N/A

Pressure: 29.92 "Hg

Humidity: 93%

Dew point: 38 °F

Location of Wood BuffaloLocation

Historic Weather in Wood Buffalo — Graph

°F

Wood Buffalo temperature yesterday

Maximum temperature yesterday: 55 °F (at 4:00 PM)
Minimum temperature yesterday: 43 °F (at 7:00 AM)
Average temperature yesterday: 48 °F

Past Weeks' High & Low Weather Summary

 TemperatureHumidityPressure
High69 °F (Sep 15, 6:00 PM)100% (Sep 2, 6:00 AM)30.66 "Hg (Sep 2, 6:00 AM)
Low24 °F (Sep 11, 7:00 AM)28% (Sep 11, 5:00 PM)29.70 "Hg (Sep 2, 4:00 PM)
Average46 °F75%30.06 "Hg
* Reported Sep 2 6:00 AM — Sep 17 6:00 AM, Wood Buffalo, Weather by CustomWeather, © 2014

Note: Actual official high and low records may vary slightly from our data, if they occured in-between our weather recording intervals... More about our weather records

Advertising

Wood Buffalo weather history for previous 24 hours

 ConditionsComfort  
Time TempWeatherWind HumidityBarometerVisibility
6:00 AM
Sep 17
40 °FChilly.12 mph93%29.92 "HgN/A
5:00 AM38 °FChilly.13 mph98%29.93 "HgN/A
4:00 AM41 °FQuite cool.12 mph93%29.94 "HgN/A
3:00 AM42 °FQuite cool.10 mph86%29.95 "HgN/A
2:00 AM43 °FQuite cool.10 mph85%29.97 "HgN/A
1:00 AM43 °FQuite cool.12 mph90%29.98 "HgN/A
12:00 AM43 °FQuite cool.10 mph83%29.98 "HgN/A
11:00 PM
Sep 16
44 °FQuite cool.15 mph88%29.97 "HgN/A
10:00 PM45 °FQuite cool.13 mph86%29.98 "HgN/A
9:00 PM46 °FCool.9 mph85%29.98 "HgN/A
8:00 PM47 °FCool.9 mph83%29.97 "HgN/A
7:00 PM49 °FCool.10 mph80%29.97 "HgN/A
6:00 PM50 °FCool.10 mph76%29.96 "HgN/A
5:00 PM51 °FCool.13 mph76%29.94 "HgN/A
4:00 PM55 °FCool.8 mph66%29.94 "HgN/A
3:00 PM53 °FCool.9 mph69%29.93 "HgN/A
2:00 PM53 °FCool.7 mph72%29.92 "HgN/A
1:00 PM51 °FCool.6 mph72%29.92 "HgN/A
12:00 PM49 °FCool.8 mph83%29.91 "HgN/A
11:00 AM48 °FCool.7 mph85%29.90 "HgN/A
10:00 AM48 °FCool.8 mph89%29.89 "HgN/A
9:00 AM46 °FCool.7 mph91%29.88 "HgN/A
8:00 AM45 °FQuite cool.8 mph93%29.88 "HgN/A
7:00 AM43 °FQuite cool.6 mph94%29.87 "HgN/A
Weather by CustomWeather, © 2014

See weather overviewHow to use our weather pages